Home > Weather > Cleveland > Past weeks

Flag for USA Weather for the Past 2 Weeks in Cleveland, Tennessee, USA

Now
51 °F

Passing clouds.


Feels Like: 50 °F
Forecast: 46 / 70 °F
Wind: 5 mph from North

Location: Lovell Field

Current Time: May 5, 2016 at 11:37:04 PM

Latest Report: May 5, 2016 at 10:53 PM


Visibility: 10 mi

Pressure: 29.93 "Hg

Humidity: 69%

Dew Point: 41 °F

Location of ClevelandLocation

Historic Weather in Cleveland — Graph

°F

Cleveland Temperature Yesterday

Maximum temperature yesterday: 72 °F (at 3:53 PM)
Minimum temperature yesterday: 52 °F (at 11:53 PM)
Average temperature yesterday: 60 °F

High & Low Weather Summary for the Past Weeks

 TemperatureHumidityPressure
High85 °F (Apr 28, 3:53 PM)97% (May 3, 1:00 AM)30.11 "Hg (May 3, 1:00 AM)
Low48 °F (May 5, 6:53 AM)26% (Apr 29, 1:53 PM)29.67 "Hg (May 4, 4:53 PM)
Average68 °F66%29.92 "Hg
* Reported Apr 20 9:53 PM — May 5 9:53 PM, Cleveland, Weather by CustomWeather, © 2016

Note: Actual official high and low records may vary slightly from our data, if they occured in-between our weather recording intervals... More about our weather records

Advertising

Cleveland Weather History for the Previous 24 Hours

Scroll right to see more
 ConditionsComfort  
Time TempWeatherWind HumidityBarometerVisibility
9:53 PM
Thu, May 5
50 °FPassing clouds.6 mph74%29.92 "Hg10 mi
8:53 PM51 °FScattered clouds.6 mph63%29.90 "Hg10 mi
7:53 PM55 °FScattered clouds.14 mph51%29.88 "Hg10 mi
6:53 PM55 °FPartly sunny.14 mph53%29.88 "Hg10 mi
5:53 PM58 °FPartly sunny.16 mph46%29.85 "Hg10 mi
4:53 PM57 °FBroken clouds.18 mph49%29.84 "Hg10 mi
3:53 PM57 °FBroken clouds.17 mph55%29.83 "Hg10 mi
2:53 PM60 °FPartly sunny.22 mph47%29.79 "Hg10 mi
1:53 PM60 °FPartly sunny.12 mph52%29.77 "Hg10 mi
12:53 PM60 °FPartly sunny.12 mph44%29.78 "Hg10 mi
11:53 AM59 °FBroken clouds.7 mph51%29.79 "Hg10 mi
10:53 AM55 °FPartly sunny.6 mph57%29.82 "Hg10 mi
9:53 AM55 °FScattered clouds.6 mph57%29.82 "Hg10 mi
8:53 AM52 °FScattered clouds.8 mph69%29.81 "Hg10 mi
7:53 AM50 °FScattered clouds.No wind77%29.80 "Hg10 mi
6:53 AM48 °FPassing clouds.5 mph77%29.79 "Hg10 mi
5:53 AM49 °FPassing clouds.6 mph77%29.77 "Hg10 mi
4:53 AM50 °FClear.7 mph77%29.77 "Hg10 mi
3:53 AM49 °FClear.5 mph86%29.77 "Hg10 mi
2:53 AM51 °FClear.12 mph80%29.77 "Hg10 mi
1:53 AM51 °FPassing clouds.6 mph86%29.78 "Hg10 mi
12:53 AM52 °FClear.No wind86%29.79 "Hg10 mi
11:53 PM
Wed, May 4
52 °FFog.No wind93%29.79 "Hg10 mi
Weather by CustomWeather, © 2016

See weather overviewHow to use our weather pages